Regional Weather Roundup
Issued by NWS

Home | Current Version | Previous Version | Graphics & Text | Print | Product List | Glossary On
Versions: 1 2 3 4 5 6 7 8 9 10 11 12 13 14 15 16 17 18 19 20 21 22 23 24 25 26 27 28 29 30 31 32 33 34 35 36 37 38 39 40 41 42 43 44 45 46 47 48 49 50
000
ASUS43 KFSD 302310
RWRSD

WEATHER ROUNDUP FOR SOUTH DAKOTA
NATIONAL WEATHER SERVICE SIOUX FALLS SD
600 PM CDT SAT AUG 30 2014

NOTE: "FAIR" INDICATES FEW OR NO CLOUDS BELOW 12,000 FEET WITH NO
SIGNIFICANT WEATHER AND/OR OBSTRUCTIONS TO VISIBILITY.


SDZ001>005-009-010-012>017-310000-
NORTHWEST AND NORTH CENTRAL SOUTH DAKOTA

CITY           SKY/WX    TMP DP  RH WIND       PRES   REMARKS
BUFFALO          N/A     81  60  48 E14       29.62F
FAITH            N/A     79  62  56 SE23G32   29.67F
MOBRIDGE       SUNNY     75  59  57 SE15      29.73F
$$

SDZ012>016-024>037-041>051-057-063-072>074-310000-
SOUTHWEST AND SOUTH CENTRAL SOUTH DAKOTA

CITY           SKY/WX    TMP DP  RH WIND       PRES   REMARKS
RAPID CTY ARPT MOSUNNY   88  53  30 S16       29.66F
PIERRE         SUNNY     80  61  52 SE18G26   29.72F
CUSTER         MOSUNNY   78  48  34 SE8G16    29.82F
ELLSWORTH AFB  MOSUNNY   88  53  29 S18       29.65F
PHILIP         SUNNY     89  59  36 SE20G26   29.66F
PINE RIDGE     SUNNY     88  55  32 S18       29.71F
WINNER         FAIR      82  60  47 S17G23    29.77F
$$

SDZ004>011-016>023-039-040-310000-
NORTHEAST SOUTH DAKOTA

CITY           SKY/WX    TMP DP  RH WIND       PRES   REMARKS
ABERDEEN       SUNNY     70  58  65 SE10      29.81F
WATERTOWN      SUNNY     69  57  65 S5        29.84F
SISSETON         N/A     70  62  76 SE6       29.83S
$$

SDZ017-020-022-023-036>040-048>070-310000-
SOUTHEAST SOUTH DAKOTA

CITY           SKY/WX    TMP DP  RH WIND       PRES   REMARKS
SIOUX FALLS    MOSUNNY   72  61  68 CALM      29.86F
HURON          SUNNY     71  58  63 SE8       29.81F
CHAMBERLAIN    SUNNY     75  63  66 SE15G21   29.79F
MITCHELL       SUNNY     72  61  68 SE10      29.83F
YANKTON        SUNNY     73  61  64 SE6       29.84F
$$

ABBREVIATIONS USED IN REMARKS
   TC - TEMPERATURE IN CELSIUS
  WCI - WIND CHILL INDEX
   HX - HEAT INDEX
  VSB - VISIBILITY




USA.gov is the U.S. government's official web portal to all federal, state and local government web resources and services.